Weather in Zharma

Kazakhstan     48°46′58″N   80°52′40″E
temp.,
°C
wind,
m/s
gust,
m/s
humid.,
%
clouds,
%
prec.,
mm/h
press.,
hPa
HPBL,
m
15 may, sat
sat1500:00+7nnw22895 0.1 102428
03:00+6nnw22922 0.0 102415
06:00+7n23890 0.0 102497
09:00+13nne57595 0.0 1024721
12:00+16nne66424 0.0 10231401
15:00+18nne55353 0.0 10221694
18:00+17nne66344 0.0 10211481
21:00+12n33560 0.0 102327
16 may, sun
sun1600:00+10nnw11692 0.0 102210
03:00+9nnw22772 0.0 102110
06:00+10nnw12720 0.0 102212
09:00+16n34470 0.0 1021640
12:00+20nne33350 0.0 10201563
15:00+22n34304 0.0 10182143
18:00+22n34271 0.0 10172222
21:00+15nnw00440 0.0 101711
17 may, mon
mon1700:00+15sw22410 0.0 101711
03:00+14wsw43415 0.0 101734
06:00+13wsw3448100 0.0 101765
09:00+17wnw5656100 0.1 1018551
12:00+15nnw237092 0.4 1018289
15:00+20nnw454989 1.4 10161928
18:00+19nnw47464 1.5 10161034
21:00+16n23632 0.0 101760
18 may, tue
tue1800:00+13w11800 0.0 101711
03:00+12nw11792 0.0 101611
06:00+13wnw22700 0.0 101711
09:00+19nnw45470 0.0 1016749
12:00+23n56340 0.0 10151730
15:00+25nnw462924 0.0 10132956
18:00+24nw673338 0.0 10112132
21:00+18nnw125324 0.0 101211
19 may, wed
wed1900:00+17wsw225032 0.0 101112
03:00+15sw22605 0.2 101011
06:00+16wsw225815 0.2 100922
09:00+20nw564583 0.0 1009800
12:00+22nw684180 0.0 10071852
15:00+19wsw4855100 1.4 1005438
18:00+22nw7103463 1.6 10041647
21:00+16nnw71061100 0.1 1007742